AAY626 KMYR-KPIE

Flight info

Callsign AAY626
Flight time N/A
Altitude 32000
Route CALGO OCF NITTS
Aircraft A320/M-SDE3FGHIRWY/LB1

Departure

Time 2026-04-20 13:59
Airport Myrtle Beach International Airport (KMYR)

Arrival

Time N/A
Airport St. Petersburg Clearwater International Airport (KPIE)
Time Latitude Longitude Altitude Speed Heading
2026-04-20 13:38 33.67991 -78.92388 33 ft 0 kts 348°
2026-04-20 13:52 33.67973 -78.92383 32 ft 4 kts 345°
2026-04-20 13:53 33.67948 -78.92373 29 ft 4 kts 335°
2026-04-20 13:53 33.67925 -78.92357 31 ft 4 kts 307°
2026-04-20 13:53 33.67918 -78.92337 31 ft 1 kts 258°
2026-04-20 13:53 33.67919 -78.92332 31 ft 0 kts 258°
2026-04-20 13:55 33.67918 -78.92341 31 ft 8 kts 258°
2026-04-20 13:55 33.67896 -78.92471 32 ft 17 kts 258°
2026-04-20 13:56 33.67853 -78.92587 32 ft 14 kts 204°
2026-04-20 13:56 33.67764 -78.92578 32 ft 13 kts 169°
2026-04-20 13:56 33.67609 -78.92542 32 ft 31 kts 168°
2026-04-20 13:56 33.67393 -78.92486 32 ft 33 kts 167°
2026-04-20 13:57 33.67169 -78.92424 32 ft 33 kts 166°
2026-04-20 13:57 33.66942 -78.92354 32 ft 34 kts 163°
2026-04-20 13:57 33.66772 -78.92304 33 ft 18 kts 192°
2026-04-20 13:57 33.66722 -78.92413 34 ft 14 kts 265°
2026-04-20 13:58 33.66738 -78.92503 34 ft 10 kts 332°
2026-04-20 13:58 33.66816 -78.92543 34 ft 25 kts 341°
2026-04-20 13:58 33.67248 -78.92648 32 ft 98 kts 350°
2026-04-20 13:58 33.68105 -78.92870 43 ft 150 kts 350°
2026-04-20 13:59 33.69140 -78.93106 613 ft 150 kts 351°
2026-04-20 13:59 33.70156 -78.93324 1332 ft 146 kts 353°
2026-04-20 13:59 33.71114 -78.93658 2017 ft 143 kts 334°
2026-04-20 13:59 33.72086 -78.94141 2424 ft 160 kts 346°
2026-04-20 14:00 33.73159 -78.94816 2636 ft 191 kts 312°
2026-04-20 14:00 33.73582 -78.96407 2986 ft 219 kts 266°
2026-04-20 14:00 33.72926 -78.98132 3360 ft 244 kts 227°
2026-04-20 14:00 33.71569 -78.99416 4099 ft 252 kts 213°
2026-04-20 14:01 33.70057 -79.00470 4910 ft 257 kts 210°
2026-04-20 14:01 33.68449 -79.01521 5504 ft 274 kts 211°
2026-04-20 14:01 33.66740 -79.02665 5913 ft 286 kts 212°
2026-04-20 14:01 33.65019 -79.03871 5994 ft 288 kts 213°
2026-04-20 14:02 33.63304 -79.05138 6722 ft 290 kts 215°
2026-04-20 14:02 33.61589 -79.06449 7600 ft 292 kts 216°
2026-04-20 14:02 33.59883 -79.07771 8530 ft 291 kts 217°
2026-04-20 14:02 33.58189 -79.09088 9480 ft 290 kts 218°
2026-04-20 14:03 33.56499 -79.10407 10325 ft 293 kts 219°
2026-04-20 14:03 33.54724 -79.11805 10551 ft 317 kts 219°
2026-04-20 14:03 33.52828 -79.13299 10895 ft 333 kts 218°
2026-04-20 14:03 33.50862 -79.14835 11558 ft 338 kts 218°
2026-04-20 14:04 33.48881 -79.16371 12313 ft 341 kts 218°
2026-04-20 14:04 33.46882 -79.17915 13077 ft 342 kts 218°
2026-04-20 14:04 33.44903 -79.19443 13834 ft 344 kts 218°
2026-04-20 14:04 33.42889 -79.21000 14526 ft 346 kts 218°
2026-04-20 14:05 33.40857 -79.22571 15182 ft 348 kts 218°
2026-04-20 14:05 33.38817 -79.24147 15832 ft 350 kts 218°
2026-04-20 14:05 33.36767 -79.25727 16474 ft 352 kts 218°
2026-04-20 14:05 33.34702 -79.27322 17103 ft 354 kts 218°
2026-04-20 14:06 33.32630 -79.28926 17733 ft 356 kts 219°
2026-04-20 14:06 33.30543 -79.30545 18364 ft 358 kts 219°
2026-04-20 14:06 33.28441 -79.32176 18941 ft 361 kts 219°
2026-04-20 14:06 33.26330 -79.33810 19490 ft 363 kts 219°
2026-04-20 14:07 33.24203 -79.35453 20021 ft 365 kts 219°
2026-04-20 14:07 33.22061 -79.37103 20557 ft 367 kts 219°
2026-04-20 14:07 33.19905 -79.38762 21097 ft 370 kts 219°
2026-04-20 14:07 33.17737 -79.40431 21619 ft 372 kts 219°
2026-04-20 14:08 33.15585 -79.42089 22137 ft 374 kts 220°
2026-04-20 14:08 33.13387 -79.43779 22649 ft 377 kts 220°
2026-04-20 14:08 33.11176 -79.45475 23132 ft 379 kts 220°
2026-04-20 14:08 33.08954 -79.47179 23610 ft 381 kts 220°
2026-04-20 14:09 33.06715 -79.48899 24041 ft 384 kts 220°
2026-04-20 14:09 33.04457 -79.50632 24421 ft 386 kts 220°
2026-04-20 14:09 33.02191 -79.52368 24796 ft 388 kts 220°
2026-04-20 14:09 32.99917 -79.54111 25171 ft 390 kts 220°
2026-04-20 14:10 32.97635 -79.55861 25528 ft 391 kts 220°
2026-04-20 14:10 32.95343 -79.57619 25883 ft 393 kts 220°
2026-04-20 14:10 32.93036 -79.59382 26228 ft 395 kts 220°
2026-04-20 14:10 32.90713 -79.61154 26580 ft 397 kts 220°
2026-04-20 14:11 32.88382 -79.62930 26920 ft 399 kts 221°
2026-04-20 14:11 32.86042 -79.64715 27256 ft 400 kts 221°
2026-04-20 14:11 32.83698 -79.66506 27581 ft 402 kts 221°
2026-04-20 14:11 32.81340 -79.68309 27900 ft 404 kts 221°
2026-04-20 14:12 32.78970 -79.70120 28213 ft 406 kts 221°
2026-04-20 14:12 32.76589 -79.71939 28518 ft 407 kts 221°
2026-04-20 14:12 32.74199 -79.73760 28810 ft 409 kts 221°
2026-04-20 14:12 32.71825 -79.75565 29083 ft 411 kts 221°
2026-04-20 14:13 32.69416 -79.77395 29364 ft 413 kts 221°
2026-04-20 14:13 32.66990 -79.79238 29629 ft 415 kts 221°
2026-04-20 14:13 32.64553 -79.81089 29886 ft 416 kts 221°
2026-04-20 14:13 32.62110 -79.82942 30140 ft 418 kts 221°
2026-04-20 14:14 32.59651 -79.84805 30380 ft 419 kts 221°
2026-04-20 14:14 32.57189 -79.86669 30588 ft 421 kts 221°
2026-04-20 14:14 32.54724 -79.88533 30860 ft 420 kts 221°
2026-04-20 14:14 32.52260 -79.90394 31146 ft 419 kts 221°
2026-04-20 14:15 32.49810 -79.92246 31431 ft 418 kts 222°
2026-04-20 14:15 32.47358 -79.94100 31700 ft 418 kts 222°
2026-04-20 14:15 32.44905 -79.95949 31983 ft 417 kts 222°
2026-04-20 14:15 32.42454 -79.97793 32242 ft 417 kts 222°
2026-04-20 14:16 32.37589 -80.01452 32324 ft 411 kts 223°
2026-04-20 14:16 32.32811 -80.05048 32318 ft 409 kts 223°
2026-04-20 14:17 32.28012 -80.08666 32322 ft 409 kts 223°
2026-04-20 14:17 32.23207 -80.12277 32320 ft 409 kts 223°
2026-04-20 14:18 32.18393 -80.15892 32327 ft 410 kts 223°
2026-04-20 14:18 32.13582 -80.19498 32307 ft 410 kts 223°
2026-04-20 14:19 32.08766 -80.23097 32296 ft 410 kts 223°
2026-04-20 14:19 32.03956 -80.26689 32288 ft 410 kts 223°
2026-04-20 14:20 31.99138 -80.30294 32285 ft 410 kts 223°
2026-04-20 14:20 31.94316 -80.33886 32280 ft 410 kts 223°
2026-04-20 14:21 31.89490 -80.37471 32277 ft 410 kts 223°
2026-04-20 14:21 31.84690 -80.41036 32274 ft 411 kts 223°
2026-04-20 14:22 31.79849 -80.44627 32277 ft 411 kts 223°
2026-04-20 14:22 31.75006 -80.48219 32277 ft 411 kts 223°
2026-04-20 14:23 31.70160 -80.51809 32278 ft 412 kts 223°
2026-04-20 14:23 31.65311 -80.55392 32289 ft 412 kts 223°
2026-04-20 14:24 31.60460 -80.58981 32284 ft 412 kts 223°
2026-04-20 14:24 31.55631 -80.62541 32280 ft 413 kts 223°
2026-04-20 14:25 31.50751 -80.66108 32281 ft 414 kts 222°
2026-04-20 14:25 31.45788 -80.69567 32279 ft 416 kts 221°
2026-04-20 14:26 31.40777 -80.72971 32277 ft 416 kts 221°
2026-04-20 14:26 31.35776 -80.76380 32274 ft 416 kts 221°
2026-04-20 14:27 31.30789 -80.79810 32276 ft 416 kts 221°
2026-04-20 14:27 31.25838 -80.83225 32277 ft 416 kts 221°
2026-04-20 14:28 31.20854 -80.86654 32279 ft 416 kts 221°
2026-04-20 14:28 31.15870 -80.90075 32279 ft 416 kts 221°
2026-04-20 14:29 31.10869 -80.93490 32282 ft 416 kts 221°
2026-04-20 14:29 31.05876 -80.96908 32281 ft 416 kts 221°
2026-04-20 14:30 31.01726 -80.99744 32278 ft 416 kts 221°
2026-04-20 14:30 30.96726 -81.03151 32277 ft 416 kts 221°
2026-04-20 14:31 30.91728 -81.06554 32280 ft 416 kts 221°
2026-04-20 14:31 30.86722 -81.09963 32281 ft 417 kts 221°
2026-04-20 14:32 30.81720 -81.13370 32282 ft 417 kts 221°
2026-04-20 14:32 30.76713 -81.16774 32286 ft 417 kts 221°
2026-04-20 14:33 30.71687 -81.20172 32291 ft 417 kts 221°
2026-04-20 14:33 30.66671 -81.23556 32296 ft 417 kts 221°
2026-04-20 14:34 30.61656 -81.26960 32294 ft 417 kts 221°
2026-04-20 14:34 30.56639 -81.30362 32296 ft 417 kts 220°
2026-04-20 14:35 30.51617 -81.33747 32295 ft 417 kts 220°
2026-04-20 14:35 30.46587 -81.37128 32263 ft 418 kts 220°
2026-04-20 14:36 30.41597 -81.40486 32265 ft 418 kts 220°
2026-04-20 14:36 30.36558 -81.43877 32268 ft 419 kts 220°
2026-04-20 14:37 30.31517 -81.47263 32273 ft 419 kts 220°
2026-04-20 14:37 30.26478 -81.50643 32276 ft 419 kts 220°
2026-04-20 14:38 30.21425 -81.54030 32270 ft 419 kts 220°
2026-04-20 14:38 30.16385 -81.57411 32272 ft 419 kts 220°
2026-04-20 14:39 30.11331 -81.60791 32268 ft 419 kts 220°
2026-04-20 14:39 30.06280 -81.64159 32263 ft 419 kts 220°
2026-04-20 14:40 30.01263 -81.67509 32260 ft 419 kts 220°
2026-04-20 14:40 29.96211 -81.70869 32265 ft 419 kts 220°
2026-04-20 14:41 29.91152 -81.74236 32251 ft 419 kts 220°
2026-04-20 14:41 29.86097 -81.77592 32234 ft 420 kts 220°
2026-04-20 14:42 29.81034 -81.80954 32283 ft 420 kts 220°
2026-04-20 14:42 29.75971 -81.84316 32278 ft 421 kts 220°
2026-04-20 14:43 29.70895 -81.87680 32281 ft 421 kts 220°
2026-04-20 14:43 29.65817 -81.91034 32281 ft 421 kts 220°
2026-04-20 14:44 29.60732 -81.94384 32282 ft 421 kts 220°
2026-04-20 14:44 29.55687 -81.97712 32281 ft 421 kts 220°
2026-04-20 14:45 29.50605 -82.01072 32279 ft 421 kts 220°
2026-04-20 14:45 29.45521 -82.04418 32277 ft 421 kts 220°
2026-04-20 14:46 29.40434 -82.07761 32264 ft 422 kts 220°
2026-04-20 14:46 29.35336 -82.11109 32265 ft 422 kts 220°
2026-04-20 14:47 29.30226 -82.14464 31485 ft 424 kts 219°
2026-04-20 14:47 29.27677 -82.16130 30915 ft 419 kts 219°
2026-04-20 14:48 29.22656 -82.19411 29722 ft 411 kts 218°
2026-04-20 14:48 29.20224 -82.21011 29169 ft 406 kts 218°
2026-04-20 14:48 29.17743 -82.22615 28618 ft 402 kts 217°
2026-04-20 14:48 29.15331 -82.24140 28053 ft 400 kts 217°
2026-04-20 14:49 29.12898 -82.25649 27496 ft 397 kts 216°
2026-04-20 14:49 29.10473 -82.27136 26938 ft 394 kts 216°
2026-04-20 14:49 29.08059 -82.28610 26387 ft 392 kts 216°
2026-04-20 14:49 29.05662 -82.30073 25844 ft 390 kts 216°
2026-04-20 14:50 29.03275 -82.31536 25307 ft 388 kts 216°
2026-04-20 14:50 29.00905 -82.32989 24794 ft 386 kts 215°
2026-04-20 14:50 28.98541 -82.34442 24134 ft 388 kts 215°
2026-04-20 14:50 28.96164 -82.35905 23576 ft 387 kts 215°
2026-04-20 14:51 28.93811 -82.37348 23106 ft 382 kts 215°
2026-04-20 14:51 28.91476 -82.38775 22653 ft 378 kts 215°
2026-04-20 14:51 28.89176 -82.40182 22212 ft 373 kts 214°
2026-04-20 14:51 28.86894 -82.41580 21778 ft 370 kts 214°
2026-04-20 14:52 28.84633 -82.42965 21336 ft 366 kts 214°
2026-04-20 14:52 28.82398 -82.44335 20897 ft 363 kts 214°
2026-04-20 14:52 28.80175 -82.45698 20451 ft 361 kts 214°
2026-04-20 14:52 28.77970 -82.47049 20004 ft 359 kts 214°
2026-04-20 14:53 28.75775 -82.48392 19548 ft 357 kts 213°
2026-04-20 14:53 28.73516 -82.49521 19069 ft 362 kts 203°
2026-04-20 14:53 28.71067 -82.50247 18588 ft 365 kts 198°
2026-04-20 14:53 28.68595 -82.50920 18036 ft 365 kts 198°
2026-04-20 14:54 28.66133 -82.51595 17532 ft 363 kts 198°
2026-04-20 14:54 28.63686 -82.52271 17046 ft 361 kts 198°
2026-04-20 14:54 28.61219 -82.52956 16304 ft 368 kts 198°
2026-04-20 14:54 28.58751 -82.53639 15909 ft 364 kts 198°
2026-04-20 14:55 28.56292 -82.54318 15440 ft 362 kts 197°
2026-04-20 14:55 28.53845 -82.54993 14968 ft 362 kts 197°
2026-04-20 14:55 28.51398 -82.55665 14505 ft 361 kts 197°
2026-04-20 14:55 28.48959 -82.56337 14032 ft 361 kts 197°
2026-04-20 14:56 28.46519 -82.57010 13528 ft 360 kts 197°
2026-04-20 14:56 28.44093 -82.57678 13047 ft 358 kts 197°
2026-04-20 14:56 28.41677 -82.58343 12575 ft 356 kts 197°
2026-04-20 14:56 28.39279 -82.59003 12102 ft 354 kts 197°
2026-04-20 14:57 28.36895 -82.59660 11621 ft 352 kts 196°
2026-04-20 14:57 28.34519 -82.60313 11137 ft 350 kts 196°
2026-04-20 14:57 28.32155 -82.60963 10655 ft 349 kts 196°
2026-04-20 14:57 28.29845 -82.61594 10393 ft 340 kts 196°
2026-04-20 14:58 28.27557 -82.62218 10276 ft 328 kts 196°